Weather History for Orange, VA

Change the Weather History Date:

Friday, May 11, 2012

  Actual Average Record
Temperature  
Mean Temperature 57 °F -  
Max Temperature 73 °F 73 °F 93 °F (1953)
Min Temperature 41 °F 49 °F 31 °F (1966)
Degree Days  
Heating Degree Days 8    
Growing Degree Days 7 (Base 50)    
Moisture  
Dew Point 43 °F    
Average Humidity 61    
Maximum Humidity 100    
Minimum Humidity 33    
Precipitation  
Precipitation 0.00 in - - ()
Sea Level Pressure  
Sea Level Pressure 30.14 in    
Wind  
Wind Speed 4 mph (WNW)    
Max Wind Speed 16 mph    
Max Gust Speed 22 mph    
Visibility 10 miles    
Events      
Averages and records for this station are not official NWS values.
T = Trace of Precipitation, MM = Missing Value Source: NWS Daily Summary

Daily Weather History Graph

Daily Weather History Graph

Search for Another Location

Airport:

Trip Planner

Search our weather history database for the weather conditions in past years. The results will help you decide how hot, cold, wet, or windy it might be!

Date:

Astronomy

May. 11, 2012 Rise Set
Actual Time 6:04 AM EDT 8:13 PM EDT
Civil Twilight 5:35 AM EDT 8:42 PM EDT
Nautical Twilight 4:59 AM EDT 9:18 PM EDT
Astronomical Twilight 4:20 AM EDT 9:57 PM EDT
Moon 12:52 AM EDT (5/11) 11:34 AM EDT (5/11)
Length of Visible Light 15h 07m
Length of Day
14h 08m
Waning Gibbous, 63% of the Moon is Illuminated
May 11
Waning Gibbous
May 12
Last Quarter
May 20
New
May 28
First Quarter
Jun 4
Full

Hourly Weather History & Observations

Time (EDT) Temp. Windchill Dew Point Humidity Pressure Visibility Wind Dir Wind Speed Gust Speed Precip Events Conditions
12:15 AM 57.2 °F - 41.0 °F 55% 30.01 in 10.0 mi West 6.9 mph - N/A   Clear
12:35 AM 55.4 °F - 42.8 °F 63% 30.01 in 10.0 mi West 5.8 mph - N/A   Clear
12:55 AM 55.4 °F - 42.8 °F 63% 30.02 in 10.0 mi West 4.6 mph - N/A   Scattered Clouds
1:15 AM 55.4 °F - 42.8 °F 63% 30.03 in 10.0 mi West 3.5 mph - N/A   Clear
1:35 AM 53.6 °F - 41.0 °F 62% 30.03 in 10.0 mi West 4.6 mph - N/A   Clear
1:55 AM 51.8 °F - 44.6 °F 76% 30.03 in 10.0 mi NW 3.5 mph - N/A   Clear
2:15 AM 50.0 °F - 44.6 °F 82% 30.03 in 10.0 mi Calm Calm - N/A   Clear
2:35 AM 50.0 °F - 42.8 °F 76% 30.03 in 10.0 mi West 3.5 mph - N/A   Clear
2:55 AM 50.0 °F - 42.8 °F 76% 30.04 in 10.0 mi Calm Calm - N/A   Clear
3:15 AM 46.4 °F - 42.8 °F 87% 30.05 in 10.0 mi Calm Calm - N/A   Clear
3:35 AM 46.4 °F - 42.8 °F 87% 30.05 in 10.0 mi Calm Calm - N/A   Clear
3:55 AM 44.6 °F - 42.8 °F 93% 30.06 in 10.0 mi Calm Calm - N/A   Clear
4:15 AM 44.6 °F - 42.8 °F 93% 30.06 in 10.0 mi Calm Calm - N/A   Clear
4:35 AM 42.8 °F 41.1 °F 42.8 °F 100% 30.07 in 10.0 mi SW 3.5 mph - N/A   Clear
4:55 AM 42.8 °F - 42.8 °F 100% 30.08 in 10.0 mi Calm Calm - N/A   Clear
5:15 AM 42.8 °F - 42.8 °F 100% 30.09 in 10.0 mi Calm Calm - N/A   Clear
5:35 AM 42.8 °F 41.1 °F 42.8 °F 100% 30.09 in 10.0 mi South 3.5 mph - N/A   Clear
5:55 AM 41.0 °F - 41.0 °F 100% 30.11 in 10.0 mi Calm Calm - N/A   Clear
6:15 AM 41.0 °F - 41.0 °F 100% 30.11 in 10.0 mi Calm Calm - N/A   Clear
6:35 AM 42.8 °F - 42.8 °F 100% 30.12 in 10.0 mi Calm Calm - N/A   Clear
6:55 AM 44.6 °F - 42.8 °F 93% 30.13 in 10.0 mi Calm Calm - N/A   Clear
7:15 AM 48.2 °F - 42.8 °F 82% 30.13 in 10.0 mi WNW 5.8 mph - N/A   Clear
7:35 AM 53.6 °F - 41.0 °F 62% 30.14 in 10.0 mi West 5.8 mph - N/A   Clear
7:55 AM 55.4 °F - 41.0 °F 58% 30.14 in 10.0 mi West 5.8 mph - N/A   Clear
8:15 AM 59.0 °F - 39.2 °F 48% 30.16 in 10.0 mi West 10.4 mph - N/A   Clear
8:35 AM 59.0 °F - 39.2 °F 48% 30.16 in 10.0 mi West 8.1 mph - N/A   Clear
8:55 AM 60.8 °F - 37.4 °F 42% 30.18 in 10.0 mi West 9.2 mph - N/A   Clear
9:15 AM 60.8 °F - 37.4 °F 42% 30.18 in 10.0 mi West 6.9 mph - N/A   Clear
9:35 AM 60.8 °F - 39.2 °F 45% 30.19 in 10.0 mi NW 9.2 mph - N/A   Clear
9:55 AM 60.8 °F - 37.4 °F 42% 30.19 in 10.0 mi NW 9.2 mph 16.1 mph N/A   Clear
10:15 AM 62.6 °F - 39.2 °F 42% 30.19 in 10.0 mi NNW 11.5 mph - N/A   Clear
10:35 AM 62.6 °F - 37.4 °F 39% 30.20 in 10.0 mi NNW 9.2 mph 18.4 mph N/A   Clear
10:55 AM 64.4 °F - 37.4 °F 37% 30.20 in 10.0 mi NW 5.8 mph 18.4 mph N/A   Clear
11:15 AM 64.4 °F - 35.6 °F 34% 30.20 in 10.0 mi North 6.9 mph 18.4 mph N/A   Clear
11:35 AM 64.4 °F - 37.4 °F 37% 30.19 in 10.0 mi NW 11.5 mph - N/A   Clear
11:55 AM 64.4 °F - 37.4 °F 37% 30.18 in 10.0 mi WNW 16.1 mph 21.9 mph N/A   Clear
12:15 PM 66.2 °F - 37.4 °F 35% 30.18 in 10.0 mi NW 10.4 mph 20.7 mph N/A   Clear
12:35 PM 66.2 °F - 37.4 °F 35% 30.18 in 10.0 mi NNW 6.9 mph 16.1 mph N/A   Clear
12:55 PM 68.0 °F - 41.0 °F 37% 30.17 in 10.0 mi NNW 4.6 mph - N/A   Clear
1:15 PM 68.0 °F - 39.2 °F 35% 30.17 in 10.0 mi North 10.4 mph 18.4 mph N/A   Clear
1:35 PM 68.0 °F - 39.2 °F 35% 30.16 in 10.0 mi NW 8.1 mph - N/A   Clear
1:55 PM 68.0 °F - 41.0 °F 37% 30.16 in 10.0 mi NW 6.9 mph - N/A   Clear
2:15 PM 68.0 °F - 41.0 °F 37% 30.16 in 10.0 mi NNW 5.8 mph - N/A   Clear
2:35 PM 69.8 °F - 41.0 °F 35% 30.16 in 10.0 mi North 4.6 mph - N/A   Clear
2:55 PM 69.8 °F - 41.0 °F 35% 30.16 in 10.0 mi SW 3.5 mph - N/A   Clear
3:15 PM 69.8 °F - 41.0 °F 35% 30.17 in 10.0 mi Calm Calm - N/A   Clear
3:35 PM 71.6 °F - 42.8 °F 35% 30.16 in 10.0 mi SW 3.5 mph - N/A   Clear
3:55 PM 71.6 °F - 42.8 °F 35% 30.16 in 10.0 mi Calm Calm - N/A   Clear
4:15 PM 71.6 °F - 42.8 °F 35% 30.15 in 10.0 mi SW 3.5 mph - N/A   Clear
4:35 PM 71.6 °F - 41.0 °F 33% 30.15 in 10.0 mi Calm Calm - N/A   Clear
4:55 PM 71.6 °F - 42.8 °F 35% 30.15 in 10.0 mi SSE 6.9 mph - N/A   Clear
5:15 PM 71.6 °F - 42.8 °F 35% 30.15 in 10.0 mi South 3.5 mph - N/A   Clear
5:35 PM 71.6 °F - 42.8 °F 35% 30.15 in 10.0 mi Calm Calm - N/A   Clear
5:55 PM 73.4 °F - 42.8 °F 33% 30.15 in 10.0 mi SSW 3.5 mph - N/A   Clear
6:15 PM 71.6 °F - 42.8 °F 35% 30.15 in 10.0 mi SSE 3.5 mph - N/A   Clear
6:35 PM 71.6 °F - 42.8 °F 35% 30.15 in 10.0 mi Calm Calm - N/A   Clear
6:55 PM 71.6 °F - 44.6 °F 38% 30.15 in 10.0 mi ESE 4.6 mph - N/A   Clear
7:15 PM 69.8 °F - 46.4 °F 43% 30.16 in 10.0 mi East 3.5 mph - N/A   Clear
7:35 PM 68.0 °F - 48.2 °F 49% 30.16 in 10.0 mi Calm Calm - N/A   Clear
7:55 PM 64.4 °F - 51.8 °F 64% 30.17 in 10.0 mi Calm Calm - N/A   Clear
8:15 PM 60.8 °F - 51.8 °F 72% 30.18 in 10.0 mi Calm Calm - N/A   Clear
8:35 PM 59.0 °F - 50.0 °F 72% 30.19 in 10.0 mi Calm Calm - N/A   Clear
8:55 PM 55.4 °F - 53.6 °F 94% 30.20 in 10.0 mi Calm Calm - N/A   Clear
9:15 PM 53.6 °F - 51.8 °F 94% 30.21 in 10.0 mi Calm Calm - N/A   Clear
9:35 PM 53.6 °F - 51.8 °F 94% 30.21 in 10.0 mi Calm Calm - N/A   Clear
9:55 PM 53.6 °F - 50.0 °F 88% 30.22 in 10.0 mi Calm Calm - N/A   Clear
10:15 PM 53.6 °F - 50.0 °F 88% 30.23 in 10.0 mi Calm Calm - N/A   Clear
10:35 PM 51.8 °F - 50.0 °F 94% 30.23 in 10.0 mi Calm Calm - N/A   Clear
10:55 PM 51.8 °F - 50.0 °F 94% 30.23 in 10.0 mi Calm Calm - N/A   Clear
11:15 PM 50.0 °F - 50.0 °F 100% 30.23 in 10.0 mi Calm Calm - N/A   Clear
11:55 PM 50.0 °F - 50.0 °F 100% 30.23 in 10.0 mi Calm Calm - N/A   Clear